アトラス彗星

C/2019 K8 ( ATLAS )

English version
Home page
Updated on March 26, 2020

---------------------------------------------------------------------

・ プロフィール

発見日 2019年5月27日
発見光度 17.9等
発見者 Asteroid Terrestrial-Impact Last Alert System (ATLAS) search program

・ 写真集

・ 軌道要素

Epoch 2019 July 16.0 TT = JDT 2458680.5
T 2019 July 21.21749 TT                                 Rudenko
q   3.1950437            (2000.0)            P               Q
z  +0.0007053      Peri.   85.35236     -0.02318675     -0.36219219
 +/-0.0000016      Node   291.04631     -0.48368344     +0.81978107
e   0.9977464      Incl.   93.22216     +0.87493583     +0.44359421
From 490 observations 2019 May 27-2020 Feb. 26, mean residual 0".5.

・ 光度変化

        m1 = 10.5 + 5 logΔ + 10.0 log r

---------------------------------------------------------------------

軌道要素はM.P.E.C. 2020-F67に掲載されたものです。
光度グラフはComet for Windowsで作成したものです。

---------------------------------------------------------------------

Copyright(C) Seiichi Yoshida (comet@aerith.net). All rights reserved.